Location: Brachbach
(49.1847°N, 9.7240°E)
Time: 14:49:12
(UTC+00:00)

FENGYUN 1C DEB - Visible Passes

Search period start: 03 October 2024 00:00
Search period end: 13 October 2024 00:00
Orbit: 574 x 603 km, 99.0° (Epoch: 02 October)

Date Brightness Start Highest point End Pass type
(mag) Time Alt. Az. Time Alt. Az. Time Alt. Az.
03 Oct ? 18:57:22 29° NE 18:57:22 29° NE 19:00:16 10° N visible
03 Oct ? 20:33:52 20° NW 20:33:52 20° NW 20:35:32 10° NW visible
04 Oct ? 19:04:31 30° NNE 19:04:31 30° NNE 19:07:14 10° N visible
04 Oct ? 20:40:59 17° NW 20:40:59 17° NW 20:42:16 10° NW visible
05 Oct ? 19:11:22 30° NNE 19:11:22 30° NNE 19:13:54 10° N visible
05 Oct ? 20:47:49 14° NW 20:47:49 14° NW 20:48:43 10° NW visible
06 Oct ? 19:17:57 29° NNE 19:17:57 29° NNE 19:20:17 10° N visible
06 Oct ? 20:54:22 12° NW 20:54:22 12° NW 20:54:52 10° NW visible
07 Oct ? 19:24:15 28° N 19:24:15 28° N 19:26:23 10° N visible
07 Oct ? 21:00:40 10° NW 21:00:40 10° NW 21:00:43 10° NW visible
08 Oct ? 19:30:16 26° N 19:30:16 26° N 19:32:12 10° N visible
09 Oct ? 19:36:01 24° N 19:36:01 24° N 19:37:44 10° N visible
10 Oct ? 18:05:08 10° NE 18:05:08 10° NE 18:05:16 10° NE visible
10 Oct ? 19:41:29 22° N 19:41:29 22° N 19:42:59 10° NNW visible
11 Oct ? 18:10:20 11° NE 18:10:20 11° NE 18:10:42 10° NE visible
11 Oct ? 19:46:40 19° NNW 19:46:40 19° NNW 19:47:56 10° NNW visible
12 Oct ? 18:15:15 11° NE 18:15:15 11° NE 18:15:41 10° NNE visible
12 Oct ? 19:51:35 17° NNW 19:51:35 17° NNW 19:52:37 10° NNW visible
